This demonstration page uses our WeatherBlox Daily Observations layout. Learn more.

Left ArrowRight Arrow

41.86663, -103.66717

Hourly Observations for April 15, 2018

Temp ( °F °C ) Dew Point ( °F °C ) Humidity (%) Winds ( mph kmh ) Pressure ( in mb ) Visibility ( mi km ) Precip ( " mm )
12:53 am 00:53 Cloudy 27 -2.8 15 -9.4 61 61 N N/A 30.25 1025 10 16 N/A
1:53 am 01:53 Cloudy 27 -2.8 17 -8.3 66 66 WNW 3 6 30.22 1023 10 16 N/A
2:53 am 02:53 Clear 25 -3.9 18 -7.8 75 75 NW 3 6 30.21 1023 10 16 N/A
3:53 am 03:53 Clear 25 -3.9 19 -7.2 78 78 W 5 7 30.19 1023 10 16 N/A
4:53 am 04:53 Clear 24 -4.4 19 -7.2 81 81 NW 5 7 30.20 1023 10 16 N/A
5:53 am 05:53 Clear 22 -5.6 19 -7.2 89 89 WNW 5 7 30.21 1023 10 16 N/A
6:53 am 06:53 Sunny 25 -3.9 22 -5.6 88 88 NW 8 13 30.21 1023 10 16 N/A
7:53 am 07:53 Sunny 30 -1.1 23 -5 75 75 NW 8 13 30.24 1024 10 16 N/A
8:53 am 08:53 Sunny 35 1.7 24 -4.4 64 64 WNW 10 17 30.23 1024 10 16 N/A
9:53 am 09:53 Sunny 42 5.6 29 -1.7 60 60 WNW 7 11 30.22 1023 10 16 N/A
10:53 am 10:53 Sunny 48 8.9 32 undefined 54 54 VRB 5 7 30.19 1022 10 16 N/A
11:53 am 11:53 Sunny 52 11.1 32 undefined 47 47 N N/A 30.15 1021 10 16 N/A
12:53 pm 12:53 Sunny 53 11.7 35 1.7 51 51 SE 9 15 30.14 1021 10 16 N/A
1:53 pm 13:53 Sunny 55 12.8 35 1.7 47 47 SE 12 19 30.11 1020 10 16 N/A
2:53 pm 14:53 Sunny 56 13.3 34 1.1 44 44 SE 9 15 30.10 1019 10 16 N/A
3:53 pm 15:53 Sunny 56 13.3 34 1.1 44 44 E 10 17 30.08 1019 10 16 N/A
4:53 pm 16:53 Sunny 55 12.8 34 1.1 45 45 SE 12 19 30.07 1018 10 16 N/A
5:53 pm 17:53 Sunny 51 10.6 33 0.6 50 50 ESE 16 26 30.09 1019 10 16 N/A
6:53 pm 18:53 Sunny 49 9.4 31 -0.6 50 50 SE 16 26 30.11 1020 10 16 N/A
7:53 pm 19:53 Clear 44 6.7 31 -0.6 60 60 SE 13 20 30.11 1020 10 16 N/A
8:53 pm 20:53 Clear 40 4.4 31 -0.6 70 70 ESE 14 22 30.12 1020 10 16 N/A
9:53 pm 21:53 Clear 37 2.8 30 -1.1 76 76 ESE 10 17 30.10 1019 10 16 N/A
10:53 pm 22:53 Clear 35 1.7 29 -1.7 78 78 ESE 13 20 30.07 1018 10 16 N/A
11:53 pm 23:53 Clear 33 0.6 29 -1.7 85 85 ESE 13 20 30.06 1018 10 16 N/A

Powered by AerisWeather